Date String (YYYY-MM-DD hh:mm:ss) UTC,Instrument flags,absolute air pressure of the measurement (hPa),sample flow rate (lpm),inlet stack bypass flow (lpm),air temperature of the measurement (°C),ambient temperature measured by the external sensor (°C),aerosol sample conditioner tube jacket temperature (°C),OPC LED temperature (°C),internal box temperature (°C),relative humidity of the measurement (%),span deviation,mass concentration of particles derived from Lorenz-Mie calculation of OPC scattering (μg/m³),mass concentration of particles derived from Lorenz-Mie calculation of OPC scattering (μg/m³),mass concentration of particles derived from Lorenz-Mie calculation of OPC scattering (μg/m³)
DateTimeUTC,F1_M11,P_M11,Q1_M11,Q2_M11,T1_M11,T2_M11,T3_M11,T4_M11,T5_M11,U1_M11,ZSPAN_M11,X0_M11,X2_M11,X1_M11
2023-11-05 11:00:00,SystemResetWarning,0828.4,4.99,000.00,027.2,025.9,000.0,035.6,028.4,11.3,0000.0,0006.33,0001.48,0000.99
2023-11-05 11:01:00,SystemResetWarning,0828.4,5.00,000.00,027.1,025.8,000.0,035.6,028.4,11.4,0000.0,0006.15,0001.50,0001.01
2023-11-05 11:02:00,SystemResetWarning,0828.4,5.01,000.00,027.1,025.9,000.0,035.6,028.4,11.5,0000.0,0005.75,0001.51,0001.03
2023-11-05 11:03:00,SystemResetWarning,0828.4,5.01,000.00,027.1,025.9,000.0,035.6,028.4,11.5,0000.0,0004.80,0001.50,0001.04
2023-11-05 11:04:00,SystemResetWarning,0828.5,5.01,000.00,027.1,025.9,000.0,035.6,028.4,11.5,0000.0,0004.35,0001.50,0001.05
2023-11-05 11:05:00,SystemResetWarning,0828.6,5.00,000.00,027.1,025.9,000.0,035.6,028.4,11.6,0000.0,0003.73,0001.53,0001.05
2023-11-05 11:06:00,SystemResetWarning,0828.5,5.00,000.00,027.1,025.9,000.0,035.6,028.4,11.5,0000.0,0003.32,0001.53,0001.07
2023-11-05 11:07:00,SystemResetWarning,0828.6,5.00,000.00,027.1,025.9,000.0,035.6,028.4,11.5,0000.0,0003.39,0001.54,0001.09
2023-11-05 11:08:00,SystemResetWarning,0828.4,5.00,000.00,027.1,025.9,000.0,035.6,028.4,11.5,0000.0,0003.02,0001.55,0001.11
2023-11-05 11:09:00,SystemResetWarning,0828.5,5.00,000.00,027.1,025.9,000.0,035.6,028.4,11.4,0000.0,0002.83,0001.52,0001.11
2023-11-05 11:10:00,SystemResetWarning,0828.5,5.00,000.00,027.1,025.9,000.0,035.6,028.4,11.4,0000.0,0002.59,0001.50,0001.10
2023-11-05 11:11:00,SystemResetWarning,0828.6,5.00,000.00,027.1,025.9,000.0,035.5,028.4,11.5,0000.0,0002.53,0001.47,0001.10
2023-11-05 11:12:00,SystemResetWarning,0828.6,5.00,000.00,027.1,025.9,000.0,035.5,028.4,11.5,0000.0,0002.40,0001.41,0001.08
2023-11-05 11:13:00,SystemResetWarning,0828.6,5.01,000.00,027.1,025.9,000.0,035.5,028.4,11.5,0000.0,0002.33,0001.40,0001.08
2023-11-05 11:14:00,SystemResetWarning,0828.6,5.00,000.00,027.1,025.9,000.0,035.5,028.4,11.5,0000.0,0002.24,0001.37,0001.08
2023-11-05 11:15:00,SystemResetWarning,0828.6,5.00,000.00,027.1,025.9,000.0,035.5,028.4,11.5,0000.0,0002.23,0001.40,0001.09
2023-11-05 11:16:00,SystemResetWarning,0828.6,5.00,000.00,027.1,025.9,000.0,035.5,028.4,11.5,0000.0,0002.21,0001.40,0001.08
2023-11-05 11:17:00,SystemResetWarning,0828.6,5.00,000.00,027.1,025.9,000.0,035.5,028.4,11.5,0000.0,0002.26,0001.42,0001.08
2023-11-05 11:18:00,SystemResetWarning,0828.6,5.00,000.00,027.1,025.9,000.0,035.5,028.4,11.5,0000.0,0002.08,0001.41,0001.08
2023-11-05 11:19:00,SystemResetWarning,0828.6,5.00,000.00,027.1,025.9,000.0,035.5,028.4,11.5,0000.0,0002.03,0001.42,0001.08
2023-11-05 11:20:00,SystemResetWarning,0828.6,5.00,000.00,027.1,025.9,000.0,035.5,028.4,11.4,0000.0,0002.14,0001.48,0001.09
2023-11-05 11:21:00,SystemResetWarning,0828.6,5.00,000.00,027.1,025.9,000.0,035.5,028.4,11.5,0000.0,0002.15,0001.50,0001.11
2023-11-05 11:22:00,SystemResetWarning,0828.6,5.00,000.00,027.1,025.9,000.0,035.5,028.4,11.5,0000.0,0002.17,0001.52,0001.12
2023-11-05 11:23:00,SystemResetWarning,0828.7,5.00,000.00,027.1,025.9,000.0,035.5,028.4,11.5,0000.0,0002.19,0001.54,0001.13
2023-11-05 11:24:00,SystemResetWarning,0828.7,5.00,000.00,027.1,026.0,000.0,035.5,028.5,11.5,0000.0,0002.20,0001.54,0001.13
2023-11-05 11:25:00,SystemResetWarning,0828.6,5.00,000.00,027.1,026.0,000.0,035.5,028.5,11.5,0000.0,0002.18,0001.53,0001.12
2023-11-05 11:26:00,SystemResetWarning,0828.7,4.99,000.00,027.1,026.0,000.0,035.5,028.5,11.4,0000.0,0002.18,0001.51,0001.12
2023-11-05 11:27:00,SystemResetWarning,0828.7,5.00,000.00,027.1,026.0,000.0,035.5,028.5,11.4,0000.0,0002.23,0001.51,0001.13
2023-11-05 11:28:00,SystemResetWarning,0828.6,5.00,000.00,027.1,026.0,000.0,035.5,028.5,11.4,0000.0,0002.26,0001.50,0001.13
2023-11-05 11:29:00,SystemResetWarning,0828.6,5.00,000.00,027.1,026.0,000.0,035.5,028.5,11.4,0000.0,0002.25,0001.49,0001.13
2023-11-05 11:30:00,SystemResetWarning,0828.6,5.00,000.00,027.1,026.0,000.0,035.5,028.5,11.5,0000.0,0002.21,0001.47,0001.13
2023-11-05 11:31:00,SystemResetWarning,0828.6,5.00,000.00,027.1,026.0,000.0,035.5,028.6,11.5,0000.0,0002.10,0001.42,0001.12
2023-11-05 11:32:00,SystemResetWarning,0828.6,5.00,000.00,027.1,026.0,000.0,035.5,028.6,11.4,0000.0,0002.04,0001.39,0001.11
2023-11-05 11:33:00,SystemResetWarning,0828.6,5.01,000.00,027.1,026.0,000.0,035.5,028.5,11.5,0000.0,0002.05,0001.40,0001.12
2023-11-05 11:34:00,SystemResetWarning,0828.6,5.01,000.00,027.1,026.0,000.0,035.5,028.5,11.5,0000.0,0002.04,0001.39,0001.13
2023-11-05 11:35:00,SystemResetWarning,0828.6,5.01,000.00,027.1,026.0,000.0,035.5,028.5,11.5,0000.0,0002.06,0001.40,0001.14
2023-11-05 11:36:00,SystemResetWarning,0828.6,5.00,000.00,027.1,026.0,000.0,035.5,028.5,11.5,0000.0,0002.11,0001.43,0001.16
2023-11-05 11:37:00,SystemResetWarning,0828.6,5.00,000.00,027.1,026.0,000.0,035.5,028.5,11.5,0000.0,0003.15,0001.48,0001.18
2023-11-05 11:38:00,SystemResetWarning,0828.5,5.00,000.00,027.1,026.0,000.0,035.5,028.5,11.5,0000.0,0003.27,0001.50,0001.19
2023-11-05 11:39:00,SystemResetWarning,0828.6,5.00,000.00,027.1,026.0,000.0,035.5,028.5,11.5,0000.0,0003.31,0001.51,0001.21
2023-11-05 11:40:00,SystemResetWarning,0828.6,4.99,000.00,027.1,026.0,000.0,035.5,028.5,11.5,0000.0,0003.40,0001.53,0001.23
2023-11-05 11:41:00,SystemResetWarning,0828.5,5.00,000.00,027.1,026.0,000.0,035.5,028.5,11.5,0000.0,0003.41,0001.52,0001.24
2023-11-05 11:42:00,SystemResetWarning,0828.5,4.99,000.00,027.1,026.0,000.0,035.5,028.5,11.5,0000.0,0003.52,0001.56,0001.26
2023-11-05 11:43:00,SystemResetWarning,0828.5,5.01,000.00,027.1,026.0,000.0,035.5,028.6,11.6,0000.0,0003.52,0001.57,0001.27
2023-11-05 11:44:00,SystemResetWarning,0828.5,5.00,000.00,027.1,026.1,000.0,035.5,028.6,11.6,0000.0,0003.51,0001.57,0001.28
2023-11-05 11:45:00,SystemResetWarning,0828.4,5.00,000.00,027.1,026.1,000.0,035.5,028.6,11.6,0000.0,0003.52,0001.57,0001.28
2023-11-05 11:46:00,SystemResetWarning,0828.4,5.00,000.00,027.1,026.1,000.0,035.5,028.6,11.6,0000.0,0003.51,0001.57,0001.28
2023-11-05 11:47:00,SystemResetWarning,0828.4,5.00,000.00,027.1,026.1,000.0,035.5,028.5,11.6,0000.0,0003.52,0001.59,0001.29
2023-11-05 11:48:00,SystemResetWarning,0828.4,5.00,000.00,027.1,026.1,000.0,035.5,028.6,11.6,0000.0,0002.71,0001.55,0001.30
2023-11-05 11:49:00,SystemResetWarning,0828.4,5.01,000.00,027.1,026.1,000.0,035.5,028.6,11.6,0000.0,0002.27,0001.52,0001.30
2023-11-05 11:50:00,SystemResetWarning,0828.3,5.00,000.00,027.1,026.1,000.0,035.5,028.6,11.6,0000.0,0002.45,0001.51,0001.31
2023-11-05 11:51:00,SystemResetWarning,0828.3,4.99,000.00,027.2,026.1,000.0,035.5,028.6,11.6,0000.0,0002.76,0001.53,0001.32
2023-11-05 11:52:00,SystemResetWarning,0828.4,4.99,000.00,027.2,026.2,000.0,035.5,028.7,11.6,0000.0,0002.65,0001.53,0001.33
2023-11-05 11:53:00,SystemResetWarning,0828.3,5.00,000.00,027.2,026.2,000.0,035.5,028.7,11.6,0000.0,0002.57,0001.52,0001.34
2023-11-05 11:54:00,SystemResetWarning,0828.4,5.00,000.00,027.2,026.2,000.0,035.5,028.7,11.6,0000.0,0002.64,0001.55,0001.35
2023-11-05 11:55:00,SystemResetWarning,0828.3,5.00,000.00,027.2,026.2,000.0,035.5,028.7,11.6,0000.0,0002.72,0001.61,0001.36
2023-11-05 11:56:00,SystemResetWarning,0828.3,5.00,000.00,027.2,026.3,000.0,035.6,028.7,11.6,0000.0,0002.74,0001.63,0001.37
2023-11-05 11:57:00,SystemResetWarning,0828.2,5.00,000.00,027.2,026.3,000.0,035.6,028.7,11.6,0000.0,0002.70,0001.62,0001.38
2023-11-05 11:58:00,SystemResetWarning,0828.2,5.00,000.00,027.2,026.3,000.0,035.6,028.7,11.5,0000.0,0002.97,0001.61,0001.37
2023-11-05 11:59:00,SystemResetWarning,0828.2,5.00,000.00,027.3,026.3,000.0,035.6,028.7,11.5,0000.0,0003.54,0001.63,0001.38
